CW3999 Weather Reports


Display with metric or nautical units.
time (UTC)temp
F
wind
direction
speed
MPH
gust
MPH
rain 1hr
in
rain 24hr
in
rain mn
in
humidity
%
barometer
mb
20260902200937 58 150 2.0 12.0 0.00 0.00 0.00 100 1003.9
20260902200437 58 133 2.0 7.0 0.00 0.00 0.00 100 1003.9
20260902195937 58 146 1.0 7.0 0.00 0.00 0.00 100 1003.9
20260902195432 58 167 0.0 6.0 0.00 0.00 0.00 100 1003.9
20260902194932 58 138 0.0 0.0 0.00 0.00 0.00 100 1003.9
20260902194431 58 138 1.0 7.0 0.00 0.00 0.00 100 1003.9
20260902193932 58 139 2.0 7.0 0.00 0.00 0.00 100 1003.9
20260902192930 58 149 0.0 0.0 0.00 0.00 0.00 100 1004.1
20260902192430 58 157 0.0 0.0 0.00 0.00 0.00 100 1004.3
20260902191430 58 128 0.0 0.0 0.00 0.00 0.00 100 1004.3
20260902190931 58 135 0.0 0.0 0.00 0.00 0.00 100 1004.5
20260902190430 58 144 0.0 0.0 0.00 0.00 0.00 100 1004.6
20260902185929 58 116 0.0 0.0 0.00 0.00 0.00 100 1004.7
20260902184930 58 135 0.0 0.0 0.00 0.00 0.00 100 1004.8
20260902184430 58 134 0.0 0.0 0.00 0.00 0.00 100 1004.7
20260902183931 58 134 0.0 0.0 0.00 0.00 0.00 100 1004.7
20260902182417 58 178 0.0 0.0 0.00 0.00 0.00 100 1004.6
20260902181916 58 178 0.0 0.0 0.00 0.00 0.00 100 1004.7
20260902181413 58 178 0.0 3.0 0.00 0.00 0.00 100 1004.8
20260902180912 58 178 0.0 5.0 0.00 0.00 0.00 100 1005.0
20260902180411 58 178 0.0 6.0 0.00 0.00 0.00 100 1005.1
20260902175911 58 177 2.0 10.0 0.00 0.00 0.00 100 1005.2
20260902174912 58 189 4.0 11.0 0.00 0.00 0.00 100 1005.2
20260902174409 58 175 3.0 11.0 0.00 0.00 0.00 100 1005.3
20260902173910 59 195 1.0 11.0 0.00 0.00 0.00 100 1005.3
20260902173410 59 177 0.0 0.0 0.00 0.00 0.00 100 1005.3
20260902172404 60 192 0.0 0.0 0.00 0.00 0.00 100 1005.3
20260902171903 60 192 0.0 0.0 0.00 0.00 0.00 100 1005.2
20260902171403 60 192 0.0 0.0 0.00 0.00 0.00 100 1005.2
20260902170403 60 192 0.0 0.0 0.00 0.00 0.00 100 1005.0
20260902165900 60 191 0.0 0.0 0.00 0.00 0.00 100 1005.0
20260902165402 61 191 0.0 0.0 0.00 0.00 0.00 100 1005.0
20260902164901 61 191 0.0 0.0 0.00 0.00 0.00 100 1005.0
20260902164404 61 188 0.0 0.0 0.00 0.00 0.00 100 1005.0
20260902163903 62 183 0.0 0.0 0.00 0.00 0.00 100 1004.9
20260902163403 62 157 0.0 0.0 0.00 0.00 0.00 100 1004.9
20260902162902 62 157 0.0 0.0 0.00 0.00 0.00 100 1004.9
20260902161903 62 157 0.0 0.0 0.00 0.00 0.00 100 1004.9
20260902161402 62 157 0.0 0.0 0.00 0.00 0.00 100 1004.8
20260902160902 62 157 0.0 0.0 0.00 0.00 0.00 100 1004.8
20260902160402 62 157 0.0 0.0 0.00 0.00 0.00 100 1004.8
20260902155903 62 157 0.0 0.0 0.00 0.00 0.00 100 1004.8
20260902155404 61 157 0.0 0.0 0.00 0.00 0.00 100 1004.9
20260902154903 61 157 0.0 0.0 0.00 0.00 0.00 100 1004.8
20260902153902 61 157 0.0 0.0 0.00 0.00 0.00 100 1005.0
20260902153402 61 157 0.0 0.0 0.00 0.00 0.00 100 1005.0
20260902152903 61 157 0.0 0.0 0.00 0.00 0.00 100 1005.2
20260902152402 61 157 0.0 0.0 0.00 0.00 0.00 100 1005.2
20260902151901 61 157 0.0 0.0 0.00 0.00 0.00 100 1005.4
20260902151403 61 157 0.0 0.0 0.00 0.00 0.00 100 1005.5
20260902150903 61 157 0.0 0.0 0.00 0.00 0.00 100 1005.4
20260902150403 61 157 0.0 0.0 0.00 0.00 0.00 100 1005.5
20260902145902 61 157 0.0 0.0 0.00 0.00 0.00 100 1005.5
20260902144903 61 146 0.0 0.0 0.00 0.00 0.00 100 1005.5
20260902144402 61 148 0.0 0.0 0.00 0.00 0.00 100 1005.5
20260902143901 61 148 0.0 0.0 0.00 0.00 0.00 100 1005.5
20260902143404 61 148 0.0 0.0 0.00 0.00 0.00 100 1005.5
20260902142903 60 148 0.0 0.0 0.00 0.00 0.00 100 1005.6
20260902142404 60 148 0.0 0.0 0.00 0.00 0.00 100 1005.7
20260902141902 60 146 0.0 0.0 0.00 0.00 0.00 100 1005.7
20260902141402 60 146 0.0 0.0 0.00 0.00 0.00 100 1005.7
20260902135902 60 129 0.0 0.0 0.00 0.00 0.00 100 1005.8
20260902135400 60 149 0.0 0.0 0.00 0.00 0.00 100 1005.9
20260902134904 60 149 0.0 0.0 0.00 0.00 0.00 100 1005.9
20260902134404 60 149 0.0 0.0 0.00 0.00 0.00 100 1006.0
20260902133903 60 148 0.0 0.0 0.00 0.00 0.00 100 1006.0
20260902133403 60 181 0.0 0.0 0.00 0.00 0.00 100 1006.1
20260902132903 60 181 0.0 0.0 0.00 0.00 0.00 100 1006.2
20260902132403 60 181 0.0 0.0 0.00 0.00 0.00 100 1006.2
20260902131903 60 181 0.0 0.0 0.00 0.00 0.00 100 1006.3
20260902131404 60 181 0.0 0.0 0.00 0.00 0.00 100 1006.3
20260902130902 60 181 0.0 0.0 0.00 0.00 0.00 100 1006.4
20260902125903 60 181 0.0 0.0 0.00 0.00 0.00 100 1006.7
20260902125401 60 181 0.0 0.0 0.00 0.00 0.00 100 1006.8
20260902124902 60 181 0.0 0.0 0.00 0.00 0.00 100 1006.8
20260902124403 60 181 0.0 0.0 0.00 0.00 0.00 100 1006.9
20260902123903 60 181 0.0 0.0 0.00 0.00 0.00 100 1007.0
20260902123403 60 181 0.0 0.0 0.00 0.00 0.00 100 1007.0
20260902122901 60 181 0.0 0.0 0.00 0.00 0.00 100 1007.0
20260902121901 60 182 0.0 0.0 0.00 0.00 0.00 100 1007.3
20260902121341 60 182 0.0 0.0 0.00 0.00 0.00 100 1007.3
20260902120841 60 182 0.0 0.0 0.00 0.00 0.00 100 1007.4
20260902120332 60 183 0.0 0.0 0.00 0.00 0.00 100 1007.5
20260902115829 60 183 0.0 0.0 0.00 0.00 0.00 100 1007.5
20260902115331 60 183 0.0 0.0 0.00 0.00 0.00 100 1007.5
20260902114808 60 146 0.0 0.0 0.00 0.00 0.00 100 1007.7
20260902114310 60 148 0.0 0.0 0.00 0.00 0.00 100 1007.9
20260902113309 60 175 0.0 0.0 0.00 0.00 0.00 100 1007.9
20260902112804 60 175 0.0 0.0 0.00 0.00 0.00 100 1007.8
20260902111802 60 175 0.0 0.0 0.00 0.00 0.00 100 1007.9
20260902111303 60 175 0.0 0.0 0.00 0.00 0.00 100 1007.9
20260902110802 60 175 0.0 0.0 0.00 0.00 0.00 100 1007.9
20260902110303 60 175 0.0 0.0 0.00 0.00 0.00 100 1008.0
20260902105802 60 175 0.0 0.0 0.00 0.00 0.00 100 1008.1
20260902105301 60 175 0.0 0.0 0.00 0.00 0.00 100 1008.1
20260902104802 60 175 0.0 0.0 0.00 0.00 0.00 100 1008.1
20260902103801 60 175 0.0 0.0 0.00 0.00 0.00 100 1008.2
20260902102749 59 175 0.0 0.0 0.00 0.00 0.00 100 1008.2
20260902102237 59 175 0.0 0.0 0.00 0.00 0.00 100 1008.2
20260902101732 59 175 0.0 0.0 0.00 0.00 0.00 100 1008.2
20260902101230 59 175 0.0 0.0 0.00 0.00 0.00 100 1008.2
20260902100729 59 175 0.0 0.0 0.00 0.00 0.00 100 1008.1
20260902100230 59 175 0.0 0.0 0.00 0.00 0.00 100 1008.2
20260902095731 59 175 0.0 0.0 0.00 0.00 0.00 100 1008.3
20260902094731 58 175 0.0 0.0 0.00 0.00 0.00 100 1008.3
20260902094232 58 175 0.0 0.0 0.00 0.00 0.00 100 1008.3
20260902093731 58 175 0.0 0.0 0.00 0.00 0.00 100 1008.4
20260902093231 58 175 0.0 0.0 0.00 0.00 0.00 100 1008.4
20260902092730 58 175 0.0 0.0 0.00 0.00 0.00 100 1008.5
20260902092213 58 175 0.0 0.0 0.00 0.00 0.00 100 1008.6
20260902091712 58 175 0.0 0.0 0.00 0.00 0.00 100 1008.7
20260902091213 58 175 0.0 0.0 0.00 0.00 0.00 100 1008.7
20260902090703 58 175 0.0 0.0 0.00 0.00 0.00 100 1008.8
20260902090157 58 175 0.0 0.0 0.00 0.00 0.00 100 1008.8
20260902085645 58 175 0.0 0.0 0.00 0.00 0.00 100 1008.9
20260902085141 58 175 0.0 0.0 0.00 0.00 0.00 100 1008.9
20260902084630 59 175 0.0 0.0 0.00 0.00 0.00 100 1009.0
20260902084130 59 175 0.0 0.0 0.00 0.00 0.00 100 1009.0
20260902083630 59 175 0.0 0.0 0.00 0.00 0.00 100 1009.1
20260902083130 59 175 0.0 0.0 0.00 0.00 0.00 100 1009.1
20260902082629 59 175 0.0 0.0 0.00 0.00 0.00 100 1009.1
20260902081631 60 175 0.0 0.0 0.00 0.00 0.00 100 1009.1
20260902081130 60 175 0.0 0.0 0.00 0.00 0.00 100 1009.1
20260902080629 60 175 0.0 0.0 0.00 0.00 0.00 100 1009.1
20260902080131 60 175 0.0 0.0 0.00 0.00 0.00 100 1009.1
20260902075125 61 175 0.0 0.0 0.00 0.00 0.00 100 1009.1
20260902074608 61 175 0.0 0.0 0.00 0.00 0.00 100 1009.1
20260902074101 61 175 0.0 0.0 0.00 0.00 0.00 100 1009.1
20260902073601 61 175 0.0 0.0 0.00 0.00 0.00 100 1009.1
20260902073100 61 175 0.0 0.0 0.00 0.00 0.00 100 1009.2
20260902072102 62 175 0.0 0.0 0.00 0.00 0.00 100 1009.2
20260902071603 62 175 0.0 0.0 0.00 0.00 0.00 100 1009.3
20260902071103 62 175 0.0 0.0 0.00 0.00 0.00 100 1009.4
20260902070603 62 175 0.0 0.0 0.00 0.00 0.00 100 1009.4
20260902070045 62 175 0.0 0.0 0.00 0.00 0.00 100 1009.6
20260902065545 62 171 0.0 0.0 0.00 0.00 0.00 100 1009.6
20260902065037 62 178 0.0 0.0 0.00 0.00 0.00 100 1009.6
20260902064536 62 107 0.0 0.0 0.00 0.00 0.00 100 1009.6
20260902064037 62 107 0.0 0.0 0.00 0.00 0.00 100 1009.6
20260902063032 62 107 0.0 0.0 0.00 0.00 0.00 100 1009.6
20260902062531 62 190 0.0 0.0 0.00 0.00 0.00 100 1009.6
20260902062030 62 190 0.0 0.0 0.00 0.00 0.00 100 1009.6
20260902061529 62 190 0.0 0.0 0.00 0.00 0.00 100 1009.6
20260902060531 62 194 0.0 0.0 0.00 0.00 0.00 100 1009.5
20260902060030 62 194 0.0 0.0 0.00 0.00 0.00 100 1009.6
20260902055530 62 194 0.0 0.0 0.00 0.00 0.00 100 1009.7
20260902055032 62 194 0.0 0.0 0.00 0.00 0.00 100 1009.7
20260902054531 62 194 0.0 0.0 0.00 0.00 0.00 100 1009.7
20260902054016 62 194 0.0 0.0 0.00 0.00 0.00 100 1009.7
20260902053004 62 194 0.0 0.0 0.00 0.00 0.00 100 1009.8
20260902052503 62 194 0.0 0.0 0.00 0.00 0.00 100 1009.8
20260902051441 63 194 0.0 0.0 0.00 0.00 0.00 100 1009.7
20260902050932 63 194 0.0 0.0 0.00 0.00 0.00 100 1009.8
20260902050431 63 194 0.0 0.0 0.00 0.00 0.00 100 1009.8
20260902045930 63 194 0.0 0.0 0.00 0.00 0.00 100 1009.9
20260902044930 63 194 0.0 0.0 0.00 0.00 0.00 100 1010.0
20260902044435 63 194 0.0 0.0 0.00 0.00 0.00 100 1010.0
20260902043930 63 194 0.0 0.0 0.00 0.00 0.00 100 1010.0
20260902042930 63 194 0.0 0.0 0.00 0.00 0.00 100 1010.0
20260902041931 63 194 0.0 0.0 0.00 0.00 0.00 1 1010.0
20260902041431 63 194 0.0 0.0 0.00 0.00 0.00 2 1010.0
20260902040932 63 194 0.0 0.0 0.00 0.00 0.00 3 1010.0
20260902035412 64 194 0.0 0.0 0.00 0.00 0.00 6 1009.9
20260902034913 64 194 0.0 0.0 0.00 0.00 0.00 8 1009.9
20260902033912 64 194 0.0 0.0 0.00 0.00 0.00 12 1009.8
20260902032403 65 194 0.0 0.0 0.00 0.00 0.00 15 1009.7
20260902031404 65 194 0.0 0.0 0.00 0.00 0.00 16 1009.7
20260902030904 65 194 0.0 0.0 0.00 0.00 0.00 17 1009.7
20260902030402 65 194 0.0 0.0 0.00 0.00 0.00 17 1009.7
20260902025901 65 194 0.0 0.0 0.00 0.00 0.00 17 1009.6
20260902025402 65 173 0.0 0.0 0.00 0.00 0.00 17 1009.6
20260902024905 65 257 0.0 0.0 0.00 0.00 0.00 13 1009.6
20260902024402 65 261 0.0 0.0 0.00 0.00 0.00 9 1009.6
20260902023404 66 270 0.0 0.0 0.00 0.00 0.00 100 1009.6
20260902022903 66 270 0.0 0.0 0.00 0.00 0.00 100 1009.6
20260902022404 66 270 0.0 0.0 0.00 0.00 0.00 1 1009.6
20260902021403 66 270 0.0 0.0 0.00 0.00 0.00 2 1009.6
20260902020904 66 270 0.0 0.0 0.00 0.00 0.00 4 1009.5
20260902015904 67 265 0.0 0.0 0.00 0.00 0.00 8 1009.5
20260902015401 67 265 0.0 0.0 0.00 0.00 0.00 9 1009.5
20260902014901 67 265 0.0 0.0 0.00 0.00 0.00 9 1009.5
20260902014403 67 265 0.0 0.0 0.00 0.00 0.00 9 1009.4
20260902013902 67 265 0.0 0.0 0.00 0.00 0.00 9 1009.4
20260902013402 67 265 0.0 0.0 0.00 0.00 0.00 10 1009.3
20260902012903 67 265 0.0 0.0 0.00 0.00 0.00 11 1009.3
20260902011857 67 265 0.0 0.0 0.00 0.00 0.00 11 1009.3
20260902011353 67 265 0.0 0.0 0.00 0.00 0.00 11 1009.3
20260902010333 67 194 0.0 0.0 0.00 0.00 0.00 14 1009.4
20260902004830 67 190 2.0 10.0 0.00 0.00 0.00 24 1009.2
20260902004330 67 186 1.0 10.0 0.00 0.00 0.00 26 1009.3
20260902003831 68 175 1.0 8.0 0.00 0.00 0.00 27 1009.2
20260902002830 68 200 1.0 13.0 0.00 0.00 0.00 30 1009.2
20260902002330 69 184 0.0 8.0 0.00 0.00 0.00 29 1009.1
20260902001830 69 184 0.0 8.0 0.00 0.00 0.00 29 1009.2
20260902000830 68 185 0.0 0.0 0.00 0.00 0.00 29 1009.1
20260902000330 68 185 0.0 0.0 0.00 0.00 0.00 28 1009.1
20260901235830 68 191 0.0 7.0 0.00 0.00 0.00 28 1009.0
20260901234829 68 189 2.0 9.0 0.00 0.00 0.00 25 1009.2
20260901234328 68 180 4.0 11.0 0.00 0.00 0.00 25 1009.2
20260901233832 68 196 3.0 11.0 0.00 0.00 0.00 28 1009.2
20260901233331 68 188 2.0 9.0 0.00 0.00 0.00 29 1009.2
20260901232831 68 190 4.0 11.0 0.00 0.00 0.00 29 1009.2
20260901232330 69 191 3.0 11.0 0.00 0.00 0.00 28 1009.2
20260901231831 69 187 2.0 10.0 0.00 0.00 0.00 27 1009.2
20260901231330 69 188 3.0 10.0 0.00 0.00 0.00 27 1009.2
20260901230829 68 188 2.0 8.0 0.00 0.00 0.00 23 1009.3
20260901224830 67 186 4.0 10.0 0.00 0.00 0.00 22 1009.4
20260901224330 68 169 4.0 10.0 0.00 0.00 0.00 23 1009.5
20260901223830 68 190 4.0 9.0 0.00 0.00 0.00 24 1009.5
20260901223330 68 194 2.0 9.0 0.00 0.00 0.00 25 1009.5
20260901222831 68 190 1.0 9.0 0.00 0.00 0.00 25 1009.5
20260901222329 68 186 0.0 9.0 0.00 0.00 0.00 25 1009.4
20260901221829 69 191 0.0 0.0 0.00 0.00 0.00 24 1009.4
20260901220830 69 190 0.0 0.0 0.00 0.00 0.00 22 1009.4
20260901220330 69 190 1.0 5.0 0.00 0.00 0.00 20 1009.4
20260901215831 68 190 2.0 6.0 0.00 0.00 0.00 21 1009.4
20260901214832 68 186 0.0 7.0 0.00 0.00 0.00 16 1009.4
20260901213832 67 181 0.0 0.0 0.00 0.00 0.00 15 1009.4
20260901213330 67 181 0.0 0.0 0.00 0.00 0.00 14 1009.4
20260901212830 66 181 0.0 0.0 0.00 0.00 0.00 15 1009.5
20260901212331 66 181 0.0 0.0 0.00 0.00 0.00 14 1009.5
20260901211830 66 181 0.0 1.0 0.00 0.00 0.00 14 1009.5
20260901211330 66 181 1.0 5.0 0.00 0.00 0.00 14 1009.6
20260901210829 66 181 2.0 7.0 0.00 0.00 0.00 13 1009.6
20260901210328 66 181 2.0 8.0 0.00 0.00 0.00 14 1009.6
20260901205831 66 180 2.0 8.0 0.00 0.00 0.00 14 1009.5
20260901205328 67 175 2.0 8.0 0.00 0.00 0.00 15 1009.6
20260901204331 67 184 1.0 7.0 0.00 0.00 0.00 13 1009.7
20260901203830 67 184 0.0 0.0 0.00 0.00 0.00 12 1009.7
20260901202830 67 193 0.0 0.0 0.00 0.00 0.00 11 1009.7
20260901201831 67 194 0.0 0.0 0.00 0.00 0.00 15 1009.7